Home   Weather   Shanghai   Past weeks

Flag for China Past Weather in Shanghai, Shanghai Municipality, China — Yesterday and Last 2 Weeks

Now
84 °F

Passing clouds.


Feels Like: 88 °F
Forecast: 76 / 85 °F
Wind: 6 mph from East

Location: Shanghai Hongqiao Airport

Current Time: Sep 26, 2016 at 11:53:51 AM

Latest Report: Sep 26, 2016 at 11:00 AM


Visibility: N/A

Pressure: 29.92 "Hg

Humidity: 62%

Dew Point: 70 °F

Location of ShanghaiLocation

Past Weather in Shanghai — Graph

°F

Shanghai Temperature Yesterday

Maximum temperature yesterday: 86 °F (at 12:00 PM)
Minimum temperature yesterday: 70 °F (at 3:00 AM)
Average temperature yesterday: 78 °F

High & Low Weather Summary for the Past Weeks

 TemperatureHumidityPressure
High86 °F (Sep 13, 1:30 PM)100% (Sep 15, 6:30 AM)30.12 "Hg (Sep 15, 6:30 AM)
Low66 °F (Sep 20, 5:30 AM)45% (Sep 20, 12:30 PM)29.62 "Hg (Sep 16, 4:00 PM)
Average76 °F76%29.93 "Hg
* Reported Sep 11 10:00 AM — Sep 26 10:30 AM, Shanghai, Weather by CustomWeather, © 2016

Note: Actual official high and low records may vary slightly from our data, if they occured in-between our weather recording intervals... More about our weather records

Advertising

Shanghai Weather History for the Previous 24 Hours

Scroll right to see more
 ConditionsComfort  
Time TempWeatherWind HumidityBarometerVisibility
10:30 AM
Mon, Sep 26
84 °FPassing clouds.8 mph62%29.92 "HgN/A
10:00 AM84 °FPassing clouds.8 mph58%29.92 "HgN/A
9:30 AM82 °FPassing clouds.6 mph66%29.92 "HgN/A
9:00 AM81 °FPassing clouds.6 mph66%29.92 "HgN/A
8:30 AM79 °FPartly sunny.6 mph74%29.92 "HgN/A
8:00 AM79 °FPartly sunny.6 mph79%29.92 "HgN/A
7:30 AM77 °FPartly sunny.3 mph79%29.92 "HgN/A
7:00 AM75 °FPassing clouds.6 mph83%29.92 "HgN/A
6:30 AM75 °FSunny.6 mph83%29.92 "Hg10 mi
6:00 AM75 °FSunny.3 mph83%29.89 "Hg10 mi
5:30 AM73 °FClear.3 mph89%29.89 "Hg10 mi
5:00 AM73 °FClear.3 mph89%29.89 "Hg10 mi
4:30 AM73 °FPassing clouds.1 mph89%29.89 "HgN/A
4:00 AM73 °FPassing clouds.1 mph89%29.89 "HgN/A
3:30 AM75 °FPassing clouds.1 mph83%29.89 "HgN/A
3:00 AM75 °FPassing clouds.3 mph83%29.89 "HgN/A
2:30 AM75 °FClear.6 mph83%29.89 "Hg10 mi
2:00 AM75 °FClear.6 mph83%29.89 "Hg10 mi
1:30 AM75 °FClear.6 mph83%29.89 "Hg10 mi
1:00 AM75 °FClear.6 mph83%29.92 "Hg10 mi
12:30 AM75 °FPassing clouds.6 mph83%29.92 "HgN/A
12:00 AM75 °FClear.8 mph83%29.92 "Hg10 mi
11:30 PM
Sun, Sep 25
75 °FPassing clouds.8 mph89%29.92 "HgN/A
11:00 PM77 °FPassing clouds.8 mph83%29.92 "HgN/A
10:30 PM77 °FPassing clouds.6 mph79%29.92 "HgN/A
10:00 PM77 °FPassing clouds.8 mph79%29.92 "HgN/A
9:30 PM77 °FPassing clouds.10 mph83%29.92 "HgN/A
9:00 PM77 °FPassing clouds.8 mph83%29.92 "HgN/A
8:30 PM77 °FPassing clouds.8 mph83%29.92 "HgN/A
8:00 PM77 °FPassing clouds.8 mph79%29.92 "HgN/A
7:30 PM79 °FPassing clouds.8 mph74%29.92 "HgN/A
7:00 PM79 °FPassing clouds.10 mph74%29.92 "HgN/A
6:30 PM79 °FPassing clouds.10 mph74%29.89 "HgN/A
6:00 PM81 °FPassing clouds.8 mph66%29.89 "HgN/A
5:30 PM81 °FPassing clouds.8 mph62%29.89 "HgN/A
5:00 PM82 °FPassing clouds.10 mph58%29.89 "HgN/A
4:30 PM82 °FSunny.8 mph55%29.89 "Hg10 mi
4:00 PM84 °FPassing clouds.10 mph48%29.89 "HgN/A
3:30 PM84 °FPassing clouds.8 mph51%29.89 "HgN/A
3:00 PM86 °FPassing clouds.10 mph49%29.86 "HgN/A
2:30 PM86 °FPassing clouds.8 mph49%29.86 "HgN/A
2:00 PM86 °FPassing clouds.8 mph46%29.89 "HgN/A
1:30 PM86 °FPassing clouds.8 mph49%29.89 "HgN/A
1:00 PM84 °FPassing clouds.8 mph48%29.92 "HgN/A
12:30 PM84 °FPassing clouds.6 mph48%29.92 "HgN/A
12:00 PM86 °FSunny.6 mph49%29.92 "Hg10 mi
11:30 AM84 °FPassing clouds.6 mph48%29.95 "HgN/A
11:00 AM82 °FPassing clouds.8 mph51%29.95 "HgN/A
Weather by CustomWeather, © 2016

See weather overviewHow to use our weather pages